COSMOS 1275 DEB, 12963

Orbit data source: Space-Track

COSMOS 1275 DEB, 12963 is space debris in LEO originally from a launch on Thu, 04 Jun 1981 UTC launched from the Plesetsk Missile And Space Complex (PKMTR). Debris objects in space refer to the collection of defunct objects orbiting the Earth. Examples of debris include non-operational satellites, rocket bodies, and fragments generated from explosions, collisions, or faulty payload assembly.

Loading next visibility...
Identifier
12963, 1981-053EJ
Orbit
LEO
Country
Flag of CISCIS
Related business
Manufacturer
Unknown
Mission
Spacecraft
Bus & Motor
Unknown
Mass
Unknown
Launch date (UTC)
1981-06-04 (45 years ago)
Launch vehicle
Unknown
Launch site
Plesetsk Missile And Space Complex (PKMTR)
Object type
Payload
Rocket body
Debris
Shape & HBR
Unknown shape, 0.1 m
Radar Cross Section
Small (<0.1 m²)

Expand to show TLE details & history
Last TLE update: 20 hours ago

TLE from 20 hours ago
0 COSMOS 1275 DEB
1 12963U 81053EJ  26034.15378492  .00000413  00000-0  36191-3 0  9993
2 12963  82.9435 273.2493 0022955 238.7110 249.4985 13.83221353227327
Epoch: 2026-02-03T03:41Z
TLE epoch observation values (Epoch: 2026-02-03T03:41:27.017Z)
Latitude
51.58143°
Longitude
-104.3841°
Altitude
966.731 km
Speed
7.37 km/s
True Right ascension
05h 37m 16s
True Declination
51° 25' 07"
Sunlit
Object was in full shadow at epoch
Visualization orbit readout
Latitude
Unknown
Longitude
Unknown
Altitude
Unknown
Speed
Unknown
Apparent Right ascension
Unknown
Apparent Declination
Unknown
Sunlit
N/A
Visualization observer readout
Local Sidereal Time
01:46:17
Azimuth
Unknown
Elevation
Unknown
Doppler factor
Unknown
Orbital elements
Apogee altitude
966.441 km
Perigee altitude
932.8 km
Semi-major axis
7,327.758 km
Eccentricity
0.0023
Inclination
82.9435°
RAAN
273.2493°
Arg. of periapsis
238.711°
True anomaly
249.25236°
Mean anomaly
249.4985°
Eccentric anomaly
249.37541°
Mean motion
3.46008 °/min
Orbital period
104.04 mins
BSTAR
0.00036191
Loading maneuver chart data...
Computing Atmospheric mass density...
Loading historical data...
Loading historical data...
Loading historical data...
Loading historical data...
Loading historical data...
Loading historical data...
Loading historical data...

Documentation

Showing up to 5 results
|